Regional Weather Roundup
Issued by NWS Sioux Falls, SD

Home | Current Version | Previous Version | Graphics & Text | Print | Product List | Glossary Off
Versions: 1 2 3 4 5 6 7 8 9 10 11 12 13 14 15 16 17 18 19 20 21 22 23 24 25 26 27 28 29 30 31 32 33 34 35 36 37 38 39 40 41 42 43 44 45 46 47 48 49 50

000
ASUS43 KFSD 290010
RWRFSD

WEATHER ROUNDUP FOR SE SOUTH DAKOTA/SW MINNESOTA/NW IOWA
NATIONAL WEATHER SERVICE SIOUX FALLS SD
600 PM CST WED JAN 28 2015

NOTE: "FAIR" INDICATES FEW OR NO CLOUDS BELOW 12,000 FEET WITH NO
SIGNIFICANT WEATHER AND OR OBSTRUCTIONS TO VISIBILITY.


SDZ038>040-050-052>070-290100-
SOUTHEAST SOUTH DAKOTA

CITY           SKY/WX    TMP DP  RH WIND       PRES   REMARKS
CHAMBERLAIN    CLOUDY    47  34  61 NW22G29   29.88R
6HR MIN TEMP:  47; 6HR MAX TEMP:  56;

HURON          CLOUDY    42  37  82 MISG      29.83R
6HR MIN TEMP:  39; 6HR MAX TEMP:  46;

MADISON        MOCLDY    36  36 100 NW9       29.76R
MITCHELL       PTCLDY    44  38  79 NW14      29.80R
6HR MIN TEMP:  44; 6HR MAX TEMP:  47;

SIOUX FALLS    PTCLDY    36  33  89 NE5       29.75R
6HR MIN TEMP:  36; 6HR MAX TEMP:  46;

WINNER         CLOUDY    53  32  44 NW29G43   29.90R
YANKTON        CLEAR     45  36  70 NW12      29.77R
$$

MNZ071-072-080-081-089-090-097-098-290100-
SOUTHWEST MINNESOTA

CITY           SKY/WX    TMP DP  RH WIND       PRES   REMARKS
FAIRMONT       CLOUDY    34  28  80 CALM      29.75R
JACKSON        CLOUDY    32  32 100 CALM      29.76R FOG
LUVERNE        CLOUDY    37  34  87 NE5       29.75S FOG
MARSHALL       CLOUDY    34  30  86 CALM      29.79R
6HR MIN TEMP:  34; 6HR MAX TEMP:  36;

MONTEVIDEO     CLOUDY    32  32 100 CALM      29.82R FOG
PIPESTONE      CLOUDY    36  34  93 CALM      29.74R FOG
REDWOOD FALLS  CLOUDY    33  31  92 SE3       29.77R FOG
TRACY          CLOUDY    34  32  94 CALM      29.76R FOG
WINDOM         CLOUDY    34  32  93 CALM      29.76R FOG
WORTHINGTON    CLOUDY    34  30  86 N3        29.75R
$$

IAZ001>003-012>014-020>022-031-032-NEZ013-014-SDZ071-290100-
NORTHWEST IOWA

CITY           SKY/WX    TMP DP  RH WIND       PRES   REMARKS
CHEROKEE       CLEAR     37  36  95 NE5       29.72R
DENISON        CLEAR     46  36  66 W6        29.68R
ESTHERVILLE    CLOUDY    32  30  92 NW3       29.75R FOG
LE MARS        CLEAR     37  36  93 CALM      29.73R
ORANGE CITY    CLEAR     43  36  75 N3        29.73R
SHELDON        PTCLDY    32  32 100 NE6       29.73R FOG     WCI  26
SIOUX CITY     CLEAR     41  34  76 CALM      29.72R
6HR MIN TEMP:  41; 6HR MAX TEMP:  52;

SPENCER        PTCLDY    34  30  85 N6        29.74R FOG     WCI  29
6HR MIN TEMP:  33; 6HR MAX TEMP:  37;

STORM LAKE     PTCLDY    36  34  93 N9        29.71R FOG
$$

ABBREVIATIONS USED IN REMARKS
   TC - TEMPERATURE IN CELSIUS
  WCI - WIND CHILL INDEX
   HX - HEAT INDEX
  VSB - VISIBILITY



USA.gov is the U.S. government's official web portal to all federal, state and local government web resources and services.